CW9203 Weather Reports


Display with metric or nautical units.
time (UTC)temp
F
wind
direction
speed
MPH
gust
MPH
rain 1hr
in
rain 24hr
in
rain mn
in
humidity
%
barometer
mb
20260503233304 63 53 5.0 8.0 0.00 0.00 0.00 64 1035.8
20260503231304 62 166 2.0 8.0 0.00 0.00 0.00 52 1035.9
20260503230804 61 122 2.0 6.0 0.00 0.00 0.00 51 1036.0
20260503230303 61 123 2.0 5.0 0.00 0.00 0.00 44 1036.0
20260503225804 61 128 3.0 8.0 0.00 0.00 0.00 51 1036.1
20260503225304 61 114 3.0 8.0 0.00 0.00 0.00 51 1036.0
20260503224804 61 130 3.0 7.0 0.00 0.00 0.00 49 1036.1
20260503223804 61 89 2.0 3.0 0.00 0.00 0.00 42 1036.1
20260503223303 60 128 3.0 6.0 0.00 0.00 0.00 43 1036.1
20260503222804 60 84 3.0 5.0 0.00 0.00 0.00 38 1036.1
20260503222304 59 107 3.0 5.0 0.00 0.00 0.00 27 1036.1
20260503220804 59 148 3.0 6.0 0.00 0.00 0.00 22 1036.2
20260503215804 58 140 2.0 5.0 0.00 0.00 0.00 20 1036.2
20260503215304 59 116 2.0 5.0 0.00 0.00 0.00 4 1036.2
20260503214804 59 155 2.0 5.0 0.00 0.00 0.00 4 1036.2
20260503214303 58 155 3.0 6.0 0.00 0.00 0.00 4 1036.2
20260503213303 58 132 3.0 6.0 0.00 0.00 0.00 4 1036.2
20260503212804 59 152 3.0 5.0 0.00 0.00 0.00 4 1036.2
20260503211804 59 135 1.0 5.0 0.00 0.00 0.00 4 1036.3
20260503205804 58 103 2.0 3.0 0.00 0.00 0.00 4 1036.4
20260503205304 58 242 0.0 3.0 0.00 0.00 0.00 4 1036.4
20260503204303 58 113 1.0 3.0 0.00 0.00 0.00 4 1036.4
20260503203804 57 160 1.0 3.0 0.00 0.00 0.00 4 1036.5
20260503202304 57 123 1.0 3.0 0.00 0.00 0.00 4 1036.5
20260503200804 56 109 0.0 2.0 0.00 0.00 0.00 4 1036.4
20260503195304 56 131 0.0 1.0 0.00 0.00 0.00 4 1036.3
20260503193303 56 170 0.0 2.0 0.00 0.00 0.00 4 1036.1
20260503192804 56 139 0.0 2.0 0.00 0.00 0.00 4 1036.1
20260503192305 56 118 0.0 1.0 0.00 0.00 0.00 4 1036.0
20260503191804 56 162 1.0 3.0 0.00 0.00 0.00 4 1036.0
20260503191304 56 130 1.0 3.0 0.00 0.00 0.00 4 1035.9
20260503183803 56 137 0.0 0.0 0.00 0.00 0.00 4 1035.7
20260503182804 56 144 1.0 1.0 0.00 0.00 0.00 4 1035.5
20260503181804 56 123 0.0 2.0 0.00 0.00 0.00 4 1035.4
20260503180304 56 125 0.0 0.0 0.00 0.00 0.00 4 1035.4
20260503175804 56 126 0.0 1.0 0.00 0.00 0.00 4 1035.4
20260503175305 56 124 1.0 1.0 0.00 0.00 0.00 4 1035.4
20260503174804 56 126 0.0 1.0 0.00 0.00 0.00 4 1035.4
20260503173303 56 107 1.0 3.0 0.00 0.00 0.00 4 1035.2
20260503172804 56 126 1.0 3.0 0.00 0.00 0.00 4 1035.1
20260503172305 55 115 1.0 2.0 0.00 0.00 0.00 4 1035.2
20260503171304 55 170 0.0 1.0 0.00 0.00 0.00 4 1035.2
20260503150304 56 122 0.0 2.0 0.00 0.00 0.00 4 1035.4
20260503131304 57 126 2.0 5.0 0.00 0.00 0.00 4 1036.1
20260503130304 57 132 2.0 3.0 0.00 0.00 0.00 4 1036.1
20260503110804 56 92 1.0 1.0 0.00 0.00 0.00 4 1036.0
20260503090303 57 139 1.0 2.0 0.00 0.00 0.00 4 1035.3
20260503081304 57 138 0.0 0.0 0.00 0.00 0.00 6 1035.1
20260503080303 57 156 1.0 2.0 0.00 0.00 0.00 6 1035.1
20260503072804 58 132 0.0 2.0 0.00 0.00 0.00 25 1034.7
20260503072305 58 171 0.0 1.0 0.00 0.00 0.00 30 1034.7
20260503054804 61 26 1.0 3.0 0.00 0.00 0.00 62 1034.1
20260503053304 62 13 0.0 2.0 0.00 0.00 0.00 63 1034.1
20260503052803 62 27 1.0 2.0 0.00 0.00 0.00 63 1034.1
20260503050804 62 15 1.0 5.0 0.00 0.00 0.00 64 1034.0
20260503050304 62 27 2.0 5.0 0.00 0.00 0.00 64 1034.0
20260503043304 63 9 3.0 6.0 0.00 0.00 0.00 65 1034.1
20260503041803 64 53 2.0 3.0 0.00 0.00 0.00 64 1034.1
20260503040804 64 6 0.0 3.0 0.00 0.00 0.00 64 1034.2
20260503040303 64 19 0.0 1.0 0.00 0.00 0.00 64 1034.2
20260503034804 64 58 1.0 5.0 0.00 0.00 0.00 64 1034.1
20260503034304 64 49 1.0 3.0 0.00 0.00 0.00 64 1034.1
20260503033804 64 18 3.0 5.0 0.00 0.00 0.00 64 1034.1
20260503033303 64 58 2.0 3.0 0.00 0.00 0.00 64 1034.2
20260503025305 65 49 1.0 2.0 0.00 0.00 0.00 64 1034.1
20260503022803 64 20 3.0 6.0 0.00 0.00 0.00 64 1034.2
20260503021804 64 80 3.0 6.0 0.00 0.00 0.00 64 1034.3
20260503021303 65 80 2.0 5.0 0.00 0.00 0.00 64 1034.3
20260503020304 65 63 2.0 6.0 0.00 0.00 0.00 64 1034.4
20260503015305 65 24 1.0 6.0 0.00 0.00 0.00 64 1034.4
20260503014804 65 115 3.0 7.0 0.00 0.00 0.00 64 1034.5
20260503014304 65 10 4.0 5.0 0.00 0.00 0.00 64 1034.5
20260503013304 66 123 3.0 6.0 0.00 0.00 0.00 63 1034.6
20260503012305 65 56 3.0 6.0 0.00 0.00 0.00 63 1034.7
20260503011804 65 56 2.0 3.0 0.00 0.00 0.00 64 1034.7
20260503010304 64 44 1.0 3.0 0.00 0.00 0.00 64 1035.0
20260503005804 65 134 1.0 3.0 0.00 0.00 0.00 64 1035.1
20260503004804 64 85 2.0 5.0 0.00 0.00 0.00 64 1035.1
20260503004303 64 49 2.0 7.0 0.00 0.00 0.00 64 1035.2
20260503003804 64 105 2.0 3.0 0.00 0.00 0.00 64 1035.3
20260503003303 64 140 3.0 6.0 0.00 0.00 0.00 64 1035.3
20260503002803 64 147 2.0 7.0 0.00 0.00 0.00 64 1035.4
20260503002305 64 118 3.0 6.0 0.00 0.00 0.00 64 1035.5
20260503000304 64 95 3.0 7.0 0.00 0.00 0.00 63 1035.8
20260502235305 63 122 3.0 5.0 0.00 0.00 0.00 63 1036.0
20260502234304 63 138 3.0 6.0 0.00 0.00 0.00 63 1036.1